Skip Page Navigation
NASA JPL Caltech
NASA Logo - Jet Propulsion Laboratory + View the NASA Portal
+ Center for Near-Earth Object Studies
JPL Home Earth Solar System Stars & Galaxies Technology
JPL Solar System Dynamics
BODIES ORBITS EPHEMERIDES TOOLS PHYSICAL DATA DISCOVERY FAQ SITE MAP
JPL Small-Body Database Browser
Search: [ help ]  
226047 (2002 GL85)
Classification: Main-belt Asteroid          SPK-ID: 2226047
Ephemeris | Orbit Diagram | Orbital Elements | Mission Design | Physical Parameters | Discovery Circumstances | Close-Approach Data ]

[ show orbit diagram ]
Orbital Elements at Epoch 2459000.5 (2020-May-31.0) TDB
Reference: JPL 17 (heliocentric ecliptic J2000)
 Element Value Uncertainty (1-sigma)   Units 
e .03624741570710202 4.8392e-08  
a 2.777911824511161 2.3243e-08 au
q 2.677219699810431 1.3788e-07 au
i 4.860495754907984 4.8961e-06 deg
node 104.646750021436 6.3096e-05 deg
peri 105.6818112345356 9.636e-05 deg
M 318.8038274826019 7.3039e-05 deg
tp 2459194.022060235155
(2020-Dec-10.52206024)
0.0003435 TDB
period 1691.126564130043
4.63
2.1225e-05
5.811e-08
d
yr
n .2128758471635698 2.6717e-09 deg/d
Q 2.878603949211891 2.4086e-08 au
  Orbit Determination Parameters
   # obs. used (total)      391  
   data-arc span      6593 days (18.05 yr)  
   first obs. used      2002-04-10  
   last obs. used      2020-04-28  
   planetary ephem.      DE431  
   SB-pert. ephem.      SB431-N16  
   condition code      0  
   norm. resid. RMS      .53569  
   source      ORB  
   producer      Otto Matic  
   solution date      2020-May-21 10:27:49  

Additional Information
 Earth MOID = 1.67558 au 
 Jupiter MOID = 2.09269 au 
 T_jup = 3.328 
[ show covariance matrix ]

Ephemeris | Orbit Diagram | Orbital Elements | Mission Design | Physical Parameters | Discovery Circumstances | Close-Approach Data ]

Physical Parameter Table
Parameter Symbol Value Units Sigma Reference Notes
absolute magnitude H 15.9   n/a MPO470422  

226047 (2002 GL85)          Discovered 2002-Apr-10 by LINEAR at Socorro
Reference: 20091202/Numbers.arcLast Updated: 2009-12-04

[ show close-approach data ]
Alternate Designations
 2002 GL85 = 2006 BZ83 
Ephemeris | Orbit Diagram | Orbital Elements | Mission Design | Physical Parameters | Discovery Circumstances | Close-Approach Data ]
ABOUT SSD CREDITS/AWARDS PRIVACY/COPYRIGHT GLOSSARY LINKS
FirstGov 2020-Aug-08 03:51 UT
(server date/time)  
NASA Home Page
Site Manager:   Ryan S. Park
Webmaster  Alan B. Chamberlin